Weather History for West Palm Beach, FL

Change the Weather History Date:

Sunday, August 4, 2013

  Actual Average Record
Temperature  
Mean Temperature 84 °F 83 °F  
Max Temperature 93 °F 91 °F 97 °F (1970)
Min Temperature 74 °F 76 °F 69 °F (1936)
Degree Days  
Heating Degree Days 0 0  
Month to date heating degree days 0 0  
Since 1 June heating degree days 0 0  
Since 1 July heating degree days 0 0  
Cooling Degree Days 19 18  
Month to date cooling degree days 76 72  
Year to date cooling degree days 2326 2220  
Since 1 June cooling degree days 1141 1111  
Growing Degree Days 34 (Base 50)    
Moisture  
Dew Point 72 °F    
Average Humidity 69    
Maximum Humidity 82    
Minimum Humidity 56    
Precipitation  
Precipitation 2.41 in 0.22 in 2.62 in (1936)
Month to date precipitation 2.72 0.88  
Year to date precipitation 46.24 33.65  
Snow  
Snow 0.00 in - - ()
Month to date snowfall 0.0  
Since 1 June snowfall 0.0  
Since 1 July snowfall 0.0  
Snow Depth 0.00 in    
Sea Level Pressure  
Sea Level Pressure 30.05 in    
Wind  
Wind Speed 4 mph (SSW)    
Max Wind Speed 40 mph    
Max Gust Speed 51 mph    
Visibility 9 miles    
Events Rain , Thunderstorm    
T = Trace of Precipitation, MM = Missing Value Source: NWS Daily Summary

Daily Weather History Graph

Daily Weather History Graph

Search for Another Location

Airport:

Trip Planner

Search our weather history database for the weather conditions in past years. The results will help you decide how hot, cold, wet, or windy it might be!

Date:

Astronomy

Aug. 04, 2013 Rise Set
Actual Time 6:46 AM EDT 8:05 PM EDT
Civil Twilight 6:22 AM EDT 8:30 PM EDT
Nautical Twilight 5:52 AM EDT 8:59 PM EDT
Astronomical Twilight 5:21 AM EDT 9:30 PM EDT
Moon 4:48 AM EDT (8/4) 6:27 PM EDT (8/4)
Length of Visible Light 14h 08m
Length of Day
13h 18m
Waning Crescent, 5% of the Moon is Illuminated
Aug 4
Waning Crescent
Aug 6
New
Aug 14
First Quarter
Aug 20
Full
Aug 28
Last Quarter

Hourly Weather History & Observations

Time (EDT) Temp. Heat Index Dew Point Humidity Pressure Visibility Wind Dir Wind Speed Gust Speed Precip Events Conditions
12:53 AM 78.1 °F - 72.0 °F 81% 30.10 in 10.0 mi Calm Calm - N/A   Scattered Clouds
1:53 AM 77.0 °F - 72.0 °F 84% 30.08 in 10.0 mi Calm Calm - N/A   Scattered Clouds
2:53 AM 77.0 °F - 72.0 °F 84% 30.07 in 10.0 mi Calm Calm - N/A   Scattered Clouds
3:53 AM 78.1 °F - 72.0 °F 81% 30.07 in 10.0 mi Calm Calm - N/A   Scattered Clouds
4:53 AM 78.1 °F - 72.0 °F 81% 30.06 in 10.0 mi Calm Calm - N/A   Scattered Clouds
5:53 AM 78.1 °F - 71.1 °F 79% 30.06 in 10.0 mi SSW 3.5 mph - N/A   Scattered Clouds
6:53 AM 78.1 °F - 71.1 °F 79% 30.08 in 10.0 mi Variable 3.5 mph - N/A   Mostly Cloudy
7:53 AM 79.0 °F - 72.0 °F 79% 30.09 in 10.0 mi SSW 4.6 mph - N/A   Mostly Cloudy
8:53 AM 82.9 °F 89.4 °F 73.9 °F 74% 30.09 in 10.0 mi WSW 3.5 mph - N/A   Mostly Cloudy
9:53 AM 86.0 °F 95.1 °F 75.0 °F 70% 30.10 in 10.0 mi WSW 4.6 mph - N/A   Mostly Cloudy
10:53 AM 89.1 °F 98.0 °F 73.9 °F 61% 30.09 in 10.0 mi SW 5.8 mph - N/A   Mostly Cloudy
11:53 AM 90.0 °F 97.9 °F 73.0 °F 57% 30.08 in 10.0 mi West 5.8 mph - N/A   Mostly Cloudy
12:53 PM 91.0 °F 99.3 °F 73.0 °F 55% 30.06 in 10.0 mi Calm Calm - N/A   Scattered Clouds
1:53 PM 91.9 °F 101.3 °F 73.9 °F 55% 30.04 in 10.0 mi Variable 5.8 mph - N/A   Scattered Clouds
2:53 PM 91.9 °F 103.2 °F 75.0 °F 58% 30.02 in 10.0 mi SE 12.7 mph - N/A   Mostly Cloudy
3:53 PM 91.9 °F 101.3 °F 73.9 °F 55% 29.99 in 10.0 mi SSE 11.5 mph - N/A   Mostly Cloudy
4:53 PM 89.1 °F 98.0 °F 73.9 °F 61% 29.98 in 10.0 mi SE 12.7 mph - 0.00 in Rain Light Rain
5:04 PM 87.8 °F 95.6 °F 73.4 °F 62% 30.01 in 1.0 mi West 29.9 mph 38.0 mph 0.00 in Rain , Thunderstorm Heavy Thunderstorms and Rain
5:17 PM 75.2 °F - 68.0 °F 78% 30.02 in 0.5 mi West 40.3 mph 50.6 mph 0.67 in Rain , Thunderstorm Heavy Thunderstorms and Rain
5:32 PM 75.2 °F - 69.8 °F 83% 30.06 in 1.5 mi WSW 11.5 mph 36.8 mph 1.91 in Rain , Thunderstorm Heavy Thunderstorms and Rain
5:41 PM 75.2 °F - 69.8 °F 83% 30.04 in 2.0 mi South 9.2 mph - 2.30 in Rain , Thunderstorm Heavy Thunderstorms and Rain
5:53 PM 75.0 °F - 70.0 °F 84% 30.02 in 2.5 mi SE 4.6 mph - 2.39 in Rain , Thunderstorm Heavy Thunderstorms and Rain
6:00 PM 75.2 °F - 69.8 °F 83% 30.02 in 10.0 mi NE 5.8 mph - 0.01 in Rain , Thunderstorm Light Thunderstorms and Rain
6:29 PM 78.8 °F - 71.6 °F 78% 30.04 in 10.0 mi East 6.9 mph - 0.01 in Rain Light Rain
6:53 PM 79.0 °F - 70.0 °F 74% 30.02 in 10.0 mi NW 3.5 mph - 0.02 in   Mostly Cloudy
7:53 PM 79.0 °F - 71.1 °F 77% 30.02 in 10.0 mi Calm Calm - 0.00 in   Mostly Cloudy
8:53 PM 78.1 °F - 71.1 °F 79% 30.04 in 10.0 mi South 5.8 mph - N/A   Mostly Cloudy
9:53 PM 78.1 °F - 71.1 °F 79% 30.05 in 10.0 mi SSW 5.8 mph - N/A   Mostly Cloudy
10:53 PM 78.1 °F - 71.1 °F 79% 30.04 in 10.0 mi Calm Calm - N/A   Mostly Cloudy
11:53 PM 79.0 °F - 72.0 °F 79% 30.04 in 10.0 mi WSW 3.5 mph - N/A   Mostly Cloudy